Location: Bats
(43.6587°N, 0.4584°W)
Time: 19:57:15
(UTC+00:00)

NOSS 3-4 (A) - Pass Details

Date: 12 January 2026
Orbit: 769 x 1442 km, 63.4° (Epoch: 10 January)

Event Time Altitude Azimuth Distance (km) Brightness Sun altitude
Rises 17:30:07 0° 183° (S) 3,225 6.6 -7.8°
Reaches altitude 10° 17:32:44 10° 172° (S) 2,303 5.7 -8.3°
Maximum altitude 17:37:10 29° 113° (ESE) 1,426 4.0 -9.0°
Enters shadow 17:41:28 12° 58° (ENE) 2,325 4.9 -9.7°
